Regional Weather Roundup
Issued by NWS Newport/Morehead, NC

Current Version | Previous Version | Graphics & Text | Print | Product List | Glossary Off
Versions: 1 2 3 4 5 6 7 8 9 10 11 12 13 14 15 16 17 18 19 20 21 22 23 24 25 26 27 28 29 30 31 32 33 34 35 36 37 38 39 40 41 42 43 44 45 46 47 48 49 50
000 ASUS42 KMHX 180614 RWRMHX WEATHER ROUNDUP FOR EASTERN NORTH CAROLINA NATIONAL WEATHER SERVICE NEWPORT/MOREHEAD CITY NC 100 AM EST THU JAN 18 2018 NOTE: "FAIR" INDICATES FEW OR NO CLOUDS BELOW 12,000 FEET WITH NO SIGNIFICANT WEATHER AND/OR OBSTRUCTIONS TO VISIBILITY NCZ015>017-031-032-045>047-102-103-180700- NORTH COAST CITY SKY/WX TMP DP RH WIND PRES REMARKS EDENTON MIX PCPN 25 22 91 N12G18 30.14S WCI 14 ELIZABETH CITY FOG 24 24 100 N23G30 30.12S VSB 3/4 WCI 9 KITTY HAWK N/A N/A N/A N/A MISG 30.01F MANTEO LGT SNOW 28 27 96 N14G21 30.06F VSB 1 WCI 16 $$ NCZ045>047-081-094-103-104-180700- CENTRAL COAST CITY SKY/WX TMP DP RH WIND PRES REMARKS FRISCO FRZ RAIN 32 32 100 N10G26 30.01R FOG $$ NCZ095-097-098-100-101-180700- SOUTHERN COAST CITY SKY/WX TMP DP RH WIND PRES REMARKS BEAUFORT FOG 27 25 92 NW16 30.11R VSB 1 WCI 15 CEDAR ISLAND NOT AVBL JACKSONVILLE LGT SNOW 26 24 92 NW14 30.16R FOG WCI 14 PINEY ISLAND NOT AVBL WILMINGTON CLOUDY 28 23 81 NW21G31 30.18S WCI 15 $$ NCZ011>013-027>030-043-044-078>080-089-090>093-098-180700- COASTAL PLAIN CITY SKY/WX TMP DP RH WIND PRES REMARKS AHOSKIE CLOUDY 21 16 79 N5G18 30.17F CLINTON CLOUDY 26 23 88 CALM 30.24R ELIZABETHTOWN NOT AVBL GOLDSBORO FLURRIES 24 17 74 N10 30.19S WCI 13 GREENVILLE FLURRIES 23 19 86 N12G18 30.19F WCI 12 HAVELOCK NOT AVBL KENANSVILLE FLURRIES 25 19 80 N14G21 30.20S WCI 13 KINSTON LGT SNOW 24 20 84 NW14G23 30.19S WCI 12 NEW BERN LGT SNOW 24 22 91 NW9 30.14F VSB 3/4 RICHLANDS FLURRIES 25 21 85 VRB7G18 30.17F ROCKY MOUNT CLOUDY 23 17 78 NW8 30.21F WASHINGTON LGT SNOW 23 20 89 N9 30.16R WHITEVILLE CLOUDY 28 22 78 N3 30.23R $$ AMZ130-135-150-152-154-156-158-170-250-252-270-ANZ085-086-088-633-658-670-180700- MARINE OBSERVATIONS STATION/POSITION TIME TEMP WIND PRES WAVE SWELL AIR SEA DIR/SP/G HT/PER HT/PER (UTC) (F) (DEG/KT/KT) (MB) (FT/S) (FT/S) CHESAPEAKE LIGHT NOT AVBL 64 E VA BEACH 0550 37 56 360/ 27/ 35 1015.9 9/ 7 3/10 DUCK 0548 350/ 34/ 39 1016.4 2 E DUCK 0600 40 N/A 9/ 6 2/11 OREGON INLET 0542 340/ 22/ 31 1016.5 13E OREGON INLT 0548 44 N/A 12/ 7 5/11 HATTERAS CG 0548 350/ 26/ 32 1016.0 DIAMOND BUOY 0600 40 71 340/ 33/ 41 1014.8 CAPE LOOKOUT 0600 340/ 18/ 21 1019.6 BEAUFORT LAB 0548 340/ 10/ 19 1019.4 30 SE NEW RVR IN NOT AVBL 30 SE NEW RVR IN 0530 59 N/A 8/ 5 2/11 27 SE WRIGHTSVLE NOT AVBL 5 SE WRIGHTSVLE 0508 32 47 340/ 21 1020.5 225 S CAPE HAT 0550 66 70 260/ 27/ 33 1013.2 8/11 5/11 41 SE CHARLESTON 0600 39 68 310/ 25/ 31 1023.0 $$

USA.gov is the U.S. government's official web portal to all federal, state and local government web resources and services.